Burlington, NC

3:43 PM EDT on October 22, 2017 (GMT -0400)
Burlington-Alamance Regional

Weather History for KBUY - November, 2012

Change the Weather History Date:

Thursday, November 15, 2012

  Actual Average Record
Temperature  
Mean Temperature 40 °F -  
Max Temperature 45 °F 61 °F 79 °F (1958)
Min Temperature 35 °F 35 °F 21 °F (1969)
Degree Days  
Heating Degree Days 25    
Moisture  
Dew Point 35 °F    
Average Humidity 78    
Maximum Humidity 89    
Minimum Humidity 58    
Precipitation  
Precipitation 0.12 in - - ()
Sea Level Pressure  
Sea Level Pressure 30.30 in    
Wind  
Wind Speed 5 mph (North)    
Max Wind Speed 9 mph    
Max Gust Speed -    
Visibility 10 miles    
Events Rain    
Averages and records for this station are not official NWS values.
T = Trace of Precipitation, MM = Missing Value Source: NWS Daily Summary

Daily Weather History Graph

Daily Weather History Graph

Search for Another Location

Airport or City:

Trip Planner

Search our weather history database for the weather conditions in past years. The results will help you decide how hot, cold, wet, or windy it might be!

Date:

Astronomy

Nov. 15, 2012 Rise Set
Actual Time 6:54 AM EST 5:09 PM EST
Civil Twilight 6:27 AM EST 5:37 PM EST
Nautical Twilight 5:56 AM EST 6:08 PM EST
Astronomical Twilight 5:26 AM EST 6:38 PM EST
Moon 8:46 AM EST (11/15) 7:01 PM EST (11/15)
Length of Visible Light 11h 09m
Length of Day
10h 14m
Waxing Crescent, 5% of the Moon is Illuminated
Nov 15
Waxing Crescent
Nov 20
First Quarter
Nov 28
Full
Dec 6
Last Quarter
Dec 13
New

Hourly Weather History & Observations

Time (EST) Temp. Windchill Dew Point Humidity Pressure Visibility Wind Dir Wind Speed Gust Speed Precip Events Conditions
12:54 AM 39.0 °F 34.0 °F 30.0 °F 70% 30.36 in 10.0 mi NE 6.9 mph - N/A   Clear
1:54 AM 37.9 °F 33.5 °F 30.0 °F 73% 30.35 in 10.0 mi NNE 5.8 mph - N/A   Clear
2:54 AM 37.0 °F 33.3 °F 30.0 °F 76% 30.34 in 10.0 mi NNE 4.6 mph - N/A   Clear
3:54 AM 36.0 °F 31.1 °F 28.9 °F 76% 30.33 in 10.0 mi North 5.8 mph - N/A   Clear
4:54 AM 35.1 °F 31.0 °F 28.9 °F 78% 30.33 in 10.0 mi North 4.6 mph - N/A   Partly Cloudy
5:54 AM 35.1 °F 31.0 °F 28.0 °F 76% 30.34 in 10.0 mi North 4.6 mph - N/A   Clear
7:54 AM 37.0 °F 33.3 °F 28.0 °F 70% 30.36 in 10.0 mi North 4.6 mph - N/A   Overcast
8:54 AM 37.9 °F 31.5 °F 28.0 °F 68% 30.35 in 10.0 mi North 9.2 mph - N/A   Partly Cloudy
9:54 AM 41.0 °F 35.8 °F 28.9 °F 62% 30.35 in 10.0 mi North 8.1 mph - N/A   Scattered Clouds
10:54 AM 44.1 °F 39.5 °F 30.0 °F 58% 30.34 in 10.0 mi North 8.1 mph - N/A   Overcast
11:54 AM 45.0 °F 40.6 °F 32.0 °F 60% 30.32 in 10.0 mi North 8.1 mph - N/A   Overcast
12:25 PM 44.6 °F 39.7 °F 32.0 °F 61% 30.29 in 10.0 mi North 9.2 mph - N/A   Overcast
12:54 PM 45.0 °F 40.6 °F 33.1 °F 63% 30.29 in 10.0 mi North 8.1 mph - 0.00 in Rain Light Rain
1:54 PM 43.0 °F 40.3 °F 36.0 °F 76% 30.27 in 9.0 mi North 4.6 mph - 0.02 in Rain Light Rain
2:54 PM 42.1 °F 40.2 °F 37.9 °F 85% 30.26 in 6.0 mi North 3.5 mph - 0.03 in Rain Light Rain
3:54 PM 43.0 °F 41.3 °F 39.0 °F 86% 30.27 in 5.0 mi North 3.5 mph - 0.06 in Rain Light Rain
4:18 PM 42.8 °F - 39.2 °F 87% 30.26 in 10.0 mi Calm Calm - 0.01 in Rain Light Rain
4:50 PM 42.8 °F - 39.2 °F 87% 30.26 in 10.0 mi Calm Calm - 0.01 in Rain Light Rain
4:54 PM 43.0 °F - 39.0 °F 86% 30.27 in 9.0 mi Calm Calm - 0.01 in Rain Light Rain
5:44 PM 42.8 °F - 39.2 °F 87% 30.25 in 10.0 mi Calm Calm - 0.00 in   Overcast
5:54 PM 43.0 °F - 39.9 °F 89% 30.27 in 10.0 mi Calm Calm - 0.00 in   Overcast
6:02 PM 42.8 °F - 39.2 °F 87% 30.25 in 10.0 mi Calm Calm - N/A   Overcast
6:54 PM 44.1 °F - 39.9 °F 85% 30.27 in 10.0 mi Calm Calm - N/A   Overcast
7:54 PM 44.1 °F 41.5 °F 39.9 °F 85% 30.29 in 10.0 mi West 4.6 mph - 0.00 in Rain Light Rain
8:54 PM 44.1 °F - 39.9 °F 85% 30.28 in 9.0 mi Calm Calm - 0.00 in   Overcast
9:54 PM 44.1 °F - 39.9 °F 85% 30.28 in 10.0 mi Calm Calm - 0.00 in   Overcast
10:54 PM 44.1 °F - 39.9 °F 85% 30.27 in 10.0 mi Calm Calm - N/A   Overcast
11:54 PM 44.1 °F - 39.9 °F 85% 30.28 in 10.0 mi Calm Calm - N/A   Overcast